Weather History for YSSY - April, 2013

Change the Weather History Date:

Wednesday, April 3, 2013

  Actual Average Record
Temperature  
Mean Temperature 65 °F -  
Max Temperature 70 °F 72 °F 91 °F (2005)
Min Temperature 60 °F 56 °F 41 °F (1998)
Growing Degree Days 15 (Base 50)    
Moisture  
Dew Point 59 °F    
Average Humidity 81    
Maximum Humidity 100    
Minimum Humidity 51    
Precipitation  
Precipitation 1.06 in 0.15 in - ()
Sea Level Pressure  
Sea Level Pressure 30.14 in    
Wind  
Wind Speed 13 mph ()    
Max Wind Speed 29 mph    
Max Gust Speed -    
Visibility 5.6 miles    
Events Rain , Thunderstorm    
Averages and records for this station are not official NWS values.
T = Trace of Precipitation, MM = Missing Value Source: Averaged Metar Reports

Daily Weather History Graph

Daily Weather History Graph

Search for Another Location

Airport or City:

Trip Planner

Search our weather history database for the weather conditions in past years. The results will help you decide how hot, cold, wet, or windy it might be!

Date:

Astronomy

Apr. 03, 2013 Rise Set
Actual Time 7:08 AM AEDT 6:47 PM AEDT
Civil Twilight 6:43 AM AEDT 7:12 PM AEDT
Nautical Twilight 6:14 AM AEDT 7:41 PM AEDT
Astronomical Twilight 5:45 AM AEDT 8:10 PM AEDT
Moon No Moon Rise 1:52 PM AEDT (4/3)
Length of Visible Light 12h 29m
Length of Day
11h 39m
Waning Gibbous, 52% of the Moon is Illuminated
Apr 3
Waning Gibbous
Apr 3
Last Quarter
Apr 10
New
Apr 18
First Quarter
Apr 26
Full

Hourly Weather History & Observations

Time (AEDT) Temp. Dew Point Humidity Pressure Visibility Wind Dir Wind Speed Gust Speed Precip Events Conditions
12:00 AM 70 °F 56 °F 51% 30.05 in 19 mi SE 8.1 mph - -   Partly Cloudy
12:00 AM 69.8 °F 55.4 °F 60% 30.04 in 6.2 mi SE 8.1 mph - N/A   Mostly Cloudy
12:30 AM 69.8 °F 57.2 °F 64% 30.04 in 6.2 mi SSE 6.9 mph - N/A   Scattered Clouds
1:30 AM 68.0 °F 57.2 °F 68% 30.04 in 6.2 mi West 4.6 mph - N/A   Scattered Clouds
2:00 AM 67 °F 58 °F 64% 30.05 in - NNW 5.8 mph - -  
2:00 AM 66.2 °F 57.2 °F 73% 30.04 in 6.2 mi NNW 5.8 mph - N/A   Scattered Clouds
2:30 AM 64.4 °F 57.2 °F 77% 30.04 in 6.2 mi NNW 6.9 mph - N/A   Scattered Clouds
3:00 AM 64 °F 57 °F 73% 30.04 in 19 mi NW 5.8 mph - -   Partly Cloudy
3:00 AM 64.4 °F 57.2 °F 77% 30.04 in 6.2 mi NW 5.8 mph - N/A   Scattered Clouds
3:30 AM 64.4 °F 57.2 °F 77% 30.04 in 6.2 mi WNW 5.8 mph - N/A   Partly Cloudy
4:00 AM 64.4 °F 57.2 °F 77% 30.04 in 6.2 mi NNW 4.6 mph - N/A   Scattered Clouds
4:30 AM 64.4 °F 57.2 °F 77% 30.04 in 6.2 mi WSW 1.2 mph - N/A   Scattered Clouds
5:00 AM 65 °F 58 °F 71% 30.05 in - West 4.6 mph - -  
5:00 AM 64.4 °F 57.2 °F 77% 30.04 in 6.2 mi West 4.6 mph - N/A   Mostly Cloudy
5:30 AM 66.2 °F 57.2 °F 73% 30.04 in 6.2 mi WNW 5.8 mph - N/A Thunderstorm Partly Cloudy
6:00 AM 66 °F 62 °F 83% 30.08 in 12 mi SSE 12.7 mph - -   Mostly Cloudy
6:00 AM 66.2 °F 62.6 °F 88% 30.06 in 6.2 mi SSE 12.7 mph - N/A Thunderstorm Partly Cloudy
6:24 AM 66.2 °F 62.6 °F 88% 30.06 in 1.9 mi South 12.7 mph - N/A Rain Rain Showers
6:30 AM 64.4 °F 62.6 °F 94% 30.06 in 0.9 mi SSE 26.5 mph - N/A Rain Heavy Rain Showers
6:36 AM 64.4 °F 62.6 °F 94% 30.09 in 0.5 mi SSE 20.7 mph - N/A Rain Heavy Rain Showers
6:50 AM 64.4 °F 62.6 °F 94% 30.06 in 1.6 mi South 26.5 mph - N/A Rain Rain Showers
7:00 AM 64.4 °F 62.6 °F 94% 30.06 in 1.9 mi South 28.8 mph - N/A Rain Rain Showers
7:30 AM 64.4 °F 62.6 °F 94% 30.09 in 1.9 mi South 26.5 mph - N/A Rain Rain Showers
8:00 AM 64 °F 63 °F 94% 30.12 in - South 27.6 mph - -  
8:00 AM 64.4 °F 62.6 °F 94% 30.09 in 1.9 mi South 27.6 mph - N/A Rain Rain Showers
8:30 AM 62.6 °F 62.6 °F 100% 30.12 in 2.5 mi South 26.5 mph - N/A Rain Rain Showers
9:00 AM 63 °F 62 °F 93% 30.15 in 4 mi South 24.2 mph - - Rain Light Rain Showers
9:00 AM 62.6 °F 60.8 °F 94% 30.12 in 3.7 mi South 24.2 mph - N/A Rain Light Rain Showers
9:30 AM 62.6 °F 60.8 °F 94% 30.15 in 3.1 mi South 23.0 mph - N/A Rain Rain Showers
10:00 AM 62.6 °F 60.8 °F 94% 30.15 in 5.0 mi South 25.3 mph - N/A Rain Light Rain Showers
10:30 AM 64.4 °F 60.8 °F 88% 30.18 in 6.2 mi South 23.0 mph - N/A Rain Light Rain Showers
11:00 AM 65 °F 60 °F 77% 30.19 in - South 24.2 mph - -  
11:00 AM 64.4 °F 59.0 °F 83% 30.18 in 6.2 mi South 24.2 mph - N/A Rain Light Rain Showers
11:30 AM 66.2 °F 55.4 °F 68% 30.18 in 6.2 mi South 25.3 mph - N/A   Mostly Cloudy
12:00 PM 67 °F 55 °F 57% 30.18 in 6 mi SSE 24.2 mph - -   Mostly Cloudy
12:00 PM 66.2 °F 55.4 °F 68% 30.18 in 6.2 mi SSE 24.2 mph - N/A   Mostly Cloudy
12:30 PM 64.4 °F 57.2 °F 77% 30.18 in 6.2 mi SSE 20.7 mph - N/A   Mostly Cloudy
1:00 PM 64.4 °F 57.2 °F 77% 30.18 in 6.2 mi SE 19.6 mph - N/A   Mostly Cloudy
1:17 PM 66.2 °F 57.2 °F 73% 30.15 in 6.2 mi South 23.0 mph - N/A   Mostly Cloudy
1:30 PM 66.2 °F 57.2 °F 73% 30.15 in 6.2 mi South 24.2 mph - N/A   Mostly Cloudy
2:00 PM 65 °F 58 °F 71% 30.18 in - SSE 21.9 mph - -  
2:00 PM 64.4 °F 57.2 °F 77% 30.15 in 6.2 mi SSE 21.9 mph - N/A Rain Light Rain Showers
2:30 PM 64.4 °F 59.0 °F 83% 30.15 in 5.0 mi SE 19.6 mph - N/A Rain Light Rain Showers
2:40 PM 66.2 °F 59.0 °F 78% 30.15 in 6.2 mi South 23.0 mph - N/A   Overcast
3:00 PM 67 °F 57 °F 63% 30.17 in 6 mi South 23.0 mph - -   Overcast
3:00 PM 66.2 °F 57.2 °F 73% 30.15 in 6.2 mi South 23.0 mph - N/A   Overcast
3:04 PM 66.2 °F 57.2 °F 73% 30.15 in 6.2 mi SSE 19.6 mph - N/A   Overcast
3:30 PM 64.4 °F 59.0 °F 83% 30.15 in 6.2 mi SSE 19.6 mph - N/A Rain Light Rain Showers
4:00 PM 64.4 °F 59.0 °F 83% 30.18 in 6.2 mi SSE 19.6 mph - N/A   Overcast
4:30 PM 64.4 °F 57.2 °F 77% 30.18 in 6.2 mi SSE 18.4 mph - N/A Rain Light Rain Showers
5:00 PM 64 °F 59 °F 77% 30.20 in - SSE 16.1 mph - -  
5:00 PM 64.4 °F 59.0 °F 83% 30.18 in 6.2 mi SSE 16.1 mph - N/A   Mostly Cloudy
5:30 PM 64.4 °F 57.2 °F 77% 30.18 in 6.2 mi SE 19.6 mph - N/A   Mostly Cloudy
6:00 PM 65 °F 59 °F 74% 30.20 in 9 mi SE 15.0 mph - - Rain Light Rain Showers
6:00 PM 64.4 °F 59.0 °F 83% 30.18 in 6.2 mi SE 15.0 mph - N/A Rain Light Rain Showers
6:30 PM 64.4 °F 59.0 °F 83% 30.18 in 3.7 mi SE 15.0 mph - N/A Rain Light Rain Showers
7:00 PM 64.4 °F 60.8 °F 88% 30.21 in 5.6 mi SSE 9.2 mph - N/A Rain Light Rain Showers
7:30 PM 64.4 °F 59.0 °F 83% 30.21 in 5.0 mi SSE 11.5 mph - N/A Rain Light Rain Showers
8:00 PM 64 °F 59 °F 78% 30.24 in - SSE 15.0 mph - -  
8:00 PM 64.4 °F 59.0 °F 83% 30.21 in 6.2 mi SSE 15.0 mph - N/A   Mostly Cloudy
8:30 PM 64.4 °F 59.0 °F 83% 30.24 in 5.6 mi SSE 9.2 mph - N/A   Mostly Cloudy
9:00 PM 63 °F 61 °F 89% 30.25 in 6 mi South 13.8 mph - - Rain Light Rain Showers
9:00 PM 62.6 °F 60.8 °F 94% 30.24 in 3.7 mi South 13.8 mph - N/A Rain Light Rain Showers
9:30 PM 62.6 °F 60.8 °F 94% 30.24 in 3.7 mi South 9.2 mph - N/A Rain Light Rain
9:53 PM 62.6 °F 60.8 °F 94% 30.24 in 2.5 mi South 10.4 mph - N/A Rain Rain Showers
10:00 PM 62.6 °F 60.8 °F 94% 30.24 in 3.7 mi SSW 9.2 mph - N/A Rain Light Rain Showers
10:30 PM 62.6 °F 59.0 °F 88% 30.24 in 6.2 mi WNW 9.2 mph - N/A   Mostly Cloudy
11:00 PM 60 °F 57 °F 87% 30.28 in - WSW 15.0 mph - -  
11:00 PM 60.8 °F 57.2 °F 88% 30.27 in 2.5 mi WSW 15.0 mph - N/A Rain Rain Showers
11:30 PM 60.8 °F 59.0 °F 94% 30.27 in 3.7 mi WSW 11.5 mph - N/A Rain Light Rain